This demonstration page uses our WeatherBlox Daily Observations layout. Learn more.

Left ArrowRight Arrow

34.16533, -84.80231

Hourly Observations for March 18, 2021

Temp ( °F °C ) Dew Point ( °F °C ) Humidity (%) Winds ( mph kmh ) Pressure ( in mb ) Visibility ( mi km ) Precip ( " mm )
12:46 am 00:46 Cloudy 60 15.6 57 13.9 90 90 SE 10 17 29.85 1011 9 14 0.00 0.00
12:53 am 00:53 Cloudy with Nearby Thunderstorms 60 15.6 57 13.9 90 90 SE 9 15 29.84 1011 7 11 0.02 0.51
1:06 am 01:06 Cloudy with Strong Thunderstorms 61 16.1 58 14.4 90 90 S 8 13 29.86 1011 4 6 0.07 1.78
1:15 am 01:15 Cloudy with Thunderstorms 61 16.1 58 14.4 90 90 SSE 9 15 29.86 1011 3 4 0.13 3.30
1:24 am 01:24 Cloudy with Thunderstorms 61 16.1 58 14.4 90 90 SSE 9 15 29.86 1011 3 4 0.20 5.08
1:26 am 01:26 Cloudy with Strong Thunderstorms 61 16.1 58 14.4 90 90 SSE 9 15 29.86 1011 3 5 0.21 5.33
1:42 am 01:42 Cloudy with Light Rain 62 16.7 59 15 90 90 Calm 29.85 1011 8 13 0.23 5.84
1:53 am 01:53 Cloudy with Light Rain 62 16.7 58 14.4 86 86 VRB 6 9 29.80 1009 9 14 0.24 6.10
2:53 am 02:53 Partly Cloudy 63 17.2 59 15 87 87 SE 6 9 29.77 1008 10 16 0.02 0.51
3:53 am 03:53 Mostly Clear 65 18.3 59 15 81 81 SSE 12 19 29.73 1007 10 16 0.00 0.00
4:53 am 04:53 Cloudy 64 17.8 59 15 84 84 VRB 5 7 29.70 1006 10 16 0.00 0.00
5:35 am 05:35 Cloudy with Nearby Thunderstorms 63 17.2 59 15 87 87 SE 3 6 29.72 1006 10 16 0.00 0.00
5:45 am 05:45 Cloudy 64 17.8 59 15 84 84 SE 9 15 29.72 1006 10 16 0.00 0.00
5:53 am 05:53 Cloudy 64 17.8 59 15 84 84 SE 5 7 29.70 1006 10 16 0.00 0.00
6:53 am 06:53 Cloudy 64 17.8 60 15.6 87 87 S 10 17 29.68 1005 10 16 0.00 0.00
7:14 am 07:14 Cloudy with Light Rain 64 17.8 60 15.6 87 87 S 7 11 29.69 1005 7 11 0.02 0.51
7:53 am 07:53 Mostly Cloudy with Light Rain 65 18.3 61 16.1 87 87 S 10 17 29.67 1005 5 8 0.04 1.02
8:14 am 08:14 Cloudy with Light Rain 64 17.8 61 16.1 90 90 Calm 29.69 1005 10 16 0.01 0.25
8:34 am 08:34 Cloudy 64 17.8 61 16.1 90 90 Calm 29.70 1006 10 16 0.01 0.25
8:53 am 08:53 Cloudy 64 17.8 62 16.7 93 93 Calm 29.68 1005 10 16 0.01 0.25
9:53 am 09:53 Cloudy 66 18.9 61 16.1 84 84 Calm 29.69 1006 10 16 0.00 0.00
10:02 am 10:02 Cloudy 65 18.3 59 15 81 81 Calm 29.71 1006 10 16 0.00 0.00
10:43 am 10:43 Cloudy 66 18.9 55 12.8 68 68 VRB 6 9 29.72 1006 10 16 0.00 0.00
10:53 am 10:53 Mostly Cloudy 67 19.4 57 13.9 71 71 Calm 29.70 1006 10 16 0.00 0.00
11:53 am 11:53 Partly Cloudy 70 21.1 54 12.2 57 57 VRB 3 6 29.70 1006 10 16 0.00 0.00
12:53 pm 12:53 Mostly Sunny 72 22.2 52 11.1 50 50 SSW 9 15 29.66 1005 10 16 0.00 0.00
1:53 pm 13:53 Partly Cloudy 73 22.8 50 10 44 44 VRB 7 11 29.65 1004 10 16 0.00 0.00
2:53 pm 14:53 Partly Cloudy 70 21.1 49 9.4 47 47 VRB 5 7 29.66 1004 10 16 0.00 0.00
3:53 pm 15:53 Mostly Cloudy 67 19.4 49 9.4 53 53 VRB 5 7 29.67 1005 10 16 0.00 0.00
4:53 pm 16:53 Cloudy 62 16.7 44 6.7 52 52 W 8 13 29.71 1006 10 16 0.00 0.00
5:53 pm 17:53 Cloudy 59 15 43 6.1 56 56 undefined N/A 29.75 1007 10 16 0.00 0.00
6:53 pm 18:53 Cloudy 57 13.9 44 6.7 62 62 VRB 3 6 29.77 1008 10 16 0.00 0.00
7:53 pm 19:53 Cloudy 54 12.2 44 6.7 69 69 VRB 3 6 29.79 1009 10 16 0.00 0.00
8:13 pm 20:13 Cloudy 54 12.2 44 6.7 69 69 Calm 29.82 1010 10 16 0.00 0.00
8:37 pm 20:37 Cloudy 53 11.7 44 6.7 72 72 Calm 29.84 1011 10 16 0.00 0.00
8:53 pm 20:53 Cloudy 53 11.7 43 6.1 69 69 VRB 6 9 29.83 1010 10 16 0.00 0.00
9:04 pm 21:04 Cloudy with Light Rain 50 10 45 7.2 83 83 VRB 5 7 29.87 1011 4 6 0.01 0.25
9:53 pm 21:53 Cloudy 50 10 44 6.7 80 80 undefined N/A 29.85 1011 10 16 0.01 0.25
10:41 pm 22:41 Cloudy 49 9.4 43 6.1 80 80 VRB 6 9 29.90 1013 10 16 0.00 0.00
10:53 pm 22:53 Cloudy 49 9.4 43 6.1 80 80 VRB 5 7 29.88 1012 10 16 0.00 0.00
11:26 pm 23:26 Cloudy 49 9.4 43 6.1 80 80 VRB 3 6 29.92 1013 10 16 0.00 0.00
11:53 pm 23:53 Cloudy 47 8.3 42 5.6 83 83 Calm 29.89 1012 10 16 0.00 0.00

Powered by AerisWeather